Location: Lake Arresoe
(56.0000°N, 12.5000°E)
Time: 07:02:23
(UTC+02:00)

Cosmos 1674 - Pass Details

Date: 02 August 2021
Orbit: 491 x 516 km, 82.5° (Epoch: 19 September)

Event Time Altitude Azimuth Distance (km) Brightness Sun altitude
Rises 03:28:53 0° 345° (NNW) 2,655 7.0 -11.2°
Reaches altitude 10° 03:31:03 10° 343° (NNW) 1,762 6.0 -11.0°
Maximum altitude 03:34:52 63° 262° (W) 583 2.7 -10.7°
Enters shadow 03:38:32 11° 182° (S) 1,698 4.8 -10.4°
